Regional Weather Roundup
Issued by NWS

Home | Current Version | Previous Version | Graphics & Text | Print | Product List | Glossary On
Versions: 1 2 3 4 5 6 7 8 9 10 11 12 13 14 15 16 17 18 19 20 21 22 23 24 25 26 27 28 29 30 31 32 33 34 35 36 37 38 39 40 41 42 43 44 45 46 47 48 49 50
000
ASUS43 KTOP 270959
RWRKS

WEATHER ROUNDUP FOR KANSAS
NATIONAL WEATHER SERVICE GOODLAND KS
500 AM CDT FRI MAR 27 2015

NOTE:  "FAIR" INDICATES FEW OR NO CLOUDS BELOW 12,000 FEET WITH NO
SIGNIFICANT WEATHER AND/OR OBSTRUCTIONS TO VISIBILITY.

KSZ001>006-013>018-027>032-041>047-271100-
NORTHWEST KANSAS

CITY           SKY/WX    TMP DP  RH WIND       PRES   REMARKS
GOODLAND       MOCLDY    31  27  85 E5        30.19R
HAYS           CLOUDY    36  25  64 N13       30.24R WCI  27
HILL CITY      LGT SNOW  34  30  85 NE7       30.26R FOG
RUSSELL        CLOUDY    34  30  85 N13       30.23R WCI  25
$$

KSZ061>065-074>080-084>089-271100-
SOUTHWEST KANSAS

CITY           SKY/WX    TMP DP  RH WIND       PRES   REMARKS
DODGE CITY     CLOUDY    36  31  82 NE15      30.19F WCI  27
ELKHART          N/A     43  29  58 N5          N/A
GARDEN CITY    CLOUDY    35  32  88 NE14      30.16F WCI  26
GREAT BEND     CLOUDY    36  28  75 N15       30.23R WCI  26
LIBERAL        MOCLDY    45  30  57 NE6       30.18S
$$

KSZ066>073-081>083-090>101-271100-
SOUTHEAST KANSAS

CITY           SKY/WX    TMP DP  RH WIND       PRES   REMARKS
CHANUTE        CLOUDY    39  36  89 N13G21    30.13R WCI  31
COFFEYVILLE    PTCLDY    38  36  92 N7        30.11R
HUTCHINSON     CLOUDY    38  32  79 N15       30.20R WCI  29
MEDICINE LODGE   N/A     39  35  86 N12       30.18R WCI  32
NEWTON         CLOUDY    36  28  75 N17       30.19R WCI  25
PARSONS        MOCLDY    40  37  89 NE6       30.13R
WICHITA INTL   CLOUDY    40  34  79 N14G21    30.17R WCI  32
WICHITA JABRA  CLOUDY    38  34  85 N13       30.17R WCI  30
WICHITA MCCONL CLOUDY    39  35  84 N16G24    30.17R WCI  30
WINFIELD       CLOUDY    41  37  86 N13       30.15R
$$

KSZ007>012-019>026-033>040-048>060-102>105-271100-
NORTHEAST KANSAS

CITY           SKY/WX    TMP DP  RH WIND       PRES   REMARKS
CONCORDIA      CLOUDY    31  30  96 NW8       30.24R
EMPORIA        CLOUDY    36  33  89 N15       30.17R WCI  27
LAWRENCE       MOCLDY    34  31  88 N7        30.19R
MANHATTAN      PTCLDY    33  30  88 N5        30.22R FOG
OLATHE IND     CLOUDY    35  33  92 N10       30.17R WCI  27
OLATHE EXE     CLOUDY    37  32  82 N10       30.15R WCI  30
SALINA         CLOUDY    36  30  79 N13       30.24R WCI  27
TOPEKA BILLARD MOCLDY    35  31  85 N10       30.21R WCI  27
TOPEKA FORBES  CLOUDY    37  32  82 N9        30.18R
$$



USA.gov is the U.S. government's official web portal to all federal, state and local government web resources and services.